VOE80FZ LFML-LGSR

Flight info

Callsign VOE80FZ
Flight time 2h 22m
Altitude 35000
Route NASIK P856 RAPED DCT RAPUR/N0443F390 DCT RATAP DCT BTA DCT DOKAR DCT SUNEV DCT PNZ DCT POLIT DCT MAREP DCT DINOB DCT KFN UM601 ALANI/N0415F230 A14 MIL M601 PEXAN
Aircraft A319/M-SDE3FGHIRWY/LB1

Departure

Time 2026-04-26 14:49
Airport Marseille Provence Airport (LFML)

Arrival

Time 2026-04-26 17:11
Airport Santorini International Airport (LGSR)
Time Latitude Longitude Altitude Speed Heading
2026-04-26 14:35 43.44212 5.21810 25 ft 0 kts 89°
2026-04-26 14:44 43.44212 5.21821 25 ft 2 kts 89°
2026-04-26 14:44 43.44200 5.21848 26 ft 7 kts 167°
2026-04-26 14:45 43.44131 5.21813 26 ft 12 kts 195°
2026-04-26 14:45 43.44076 5.21763 24 ft 15 kts 227°
2026-04-26 14:45 43.43962 5.21610 24 ft 17 kts 225°
2026-04-26 14:45 43.43924 5.21474 25 ft 16 kts 300°
2026-04-26 14:46 43.44009 5.21358 23 ft 18 kts 314°
2026-04-26 14:46 43.44102 5.21225 22 ft 19 kts 313°
2026-04-26 14:46 43.44201 5.21082 19 ft 21 kts 313°
2026-04-26 14:46 43.44299 5.20916 18 ft 22 kts 302°
2026-04-26 14:47 43.44255 5.20742 17 ft 20 kts 225°
2026-04-26 14:47 43.44212 5.20653 17 ft 5 kts 242°
2026-04-26 14:47 43.44194 5.20605 17 ft 7 kts 241°
2026-04-26 14:47 43.44155 5.20509 17 ft 14 kts 240°
2026-04-26 14:48 43.44071 5.20403 18 ft 19 kts 167°
2026-04-26 14:48 43.43885 5.20643 22 ft 71 kts 134°
2026-04-26 14:48 43.43354 5.21381 38 ft 140 kts 136°
2026-04-26 14:48 43.42609 5.22429 523 ft 156 kts 134°
2026-04-26 14:49 43.41929 5.23590 1210 ft 160 kts 125°
2026-04-26 14:49 43.41587 5.25051 1837 ft 167 kts 85°
2026-04-26 14:49 43.41799 5.26684 2368 ft 181 kts 73°
2026-04-26 14:49 43.42141 5.28437 3009 ft 193 kts 73°
2026-04-26 14:50 43.42470 5.30268 3665 ft 204 kts 74°
2026-04-26 14:50 43.42801 5.32284 4165 ft 227 kts 76°
2026-04-26 14:50 43.43072 5.34528 4777 ft 246 kts 83°
2026-04-26 14:50 43.43099 5.36999 5438 ft 264 kts 91°
2026-04-26 14:51 43.42987 5.39593 6284 ft 273 kts 92°
2026-04-26 14:51 43.42851 5.42202 7202 ft 277 kts 93°
2026-04-26 14:51 43.42710 5.44862 8150 ft 281 kts 92°
2026-04-26 14:51 43.42572 5.47540 9098 ft 284 kts 92°
2026-04-26 14:52 43.42435 5.50253 10017 ft 287 kts 92°
2026-04-26 14:52 43.42295 5.53066 10824 ft 296 kts 92°
2026-04-26 14:52 43.42153 5.55947 11314 ft 313 kts 92°
2026-04-26 14:52 43.41999 5.59061 11774 ft 332 kts 92°
2026-04-26 14:53 43.41838 5.62279 12330 ft 345 kts 92°
2026-04-26 14:53 43.41672 5.65542 13087 ft 350 kts 93°
2026-04-26 14:53 43.41511 5.68706 13852 ft 354 kts 93°
2026-04-26 14:53 43.41368 5.72111 14577 ft 359 kts 91°
2026-04-26 14:54 43.41372 5.75564 15285 ft 364 kts 87°
2026-04-26 14:54 43.41483 5.79087 15996 ft 368 kts 87°
2026-04-26 14:54 43.41607 5.82606 16670 ft 373 kts 86°
2026-04-26 14:54 43.41736 5.86214 17345 ft 378 kts 87°
2026-04-26 14:55 43.41866 5.89890 18007 ft 382 kts 87°
2026-04-26 14:55 43.41992 5.93557 18641 ft 387 kts 87°
2026-04-26 14:55 43.42120 5.97325 19273 ft 391 kts 87°
2026-04-26 14:55 43.42246 6.01093 19897 ft 395 kts 87°
2026-04-26 14:56 43.42372 6.04930 20508 ft 399 kts 87°
2026-04-26 14:56 43.42498 6.08768 21095 ft 403 kts 87°
2026-04-26 14:56 43.42623 6.12671 21687 ft 407 kts 88°
2026-04-26 14:56 43.42748 6.16583 22260 ft 411 kts 88°
2026-04-26 14:57 43.42873 6.20538 22819 ft 415 kts 88°
2026-04-26 14:57 43.42942 6.24525 23352 ft 418 kts 90°
2026-04-26 14:57 43.42836 6.28584 23902 ft 421 kts 94°
2026-04-26 14:57 43.42548 6.32620 24433 ft 424 kts 97°
2026-04-26 14:58 43.42184 6.36674 24934 ft 428 kts 97°
2026-04-26 14:58 43.41806 6.40770 25418 ft 431 kts 97°
2026-04-26 14:58 43.41422 6.44941 25907 ft 434 kts 97°
2026-04-26 14:58 43.41042 6.49077 26371 ft 437 kts 97°
2026-04-26 14:59 43.40662 6.53234 26814 ft 440 kts 97°
2026-04-26 14:59 43.40274 6.57479 27254 ft 444 kts 97°
2026-04-26 14:59 43.39889 6.61686 27691 ft 446 kts 97°
2026-04-26 14:59 43.39624 6.64574 27981 ft 448 kts 97°
2026-04-26 15:00 43.39162 6.69595 28450 ft 452 kts 98°
2026-04-26 15:00 43.38760 6.73934 28853 ft 454 kts 98°
2026-04-26 15:00 43.38356 6.78255 29235 ft 457 kts 98°
2026-04-26 15:00 43.37932 6.82651 29622 ft 460 kts 99°
2026-04-26 15:01 43.37364 6.87034 30000 ft 462 kts 102°
2026-04-26 15:01 43.36620 6.91322 30347 ft 465 kts 105°
2026-04-26 15:01 43.35676 6.95607 30747 ft 466 kts 109°
2026-04-26 15:01 43.34588 6.99845 31260 ft 464 kts 110°
2026-04-26 15:02 43.33483 7.04058 31775 ft 462 kts 110°
2026-04-26 15:02 43.32384 7.08234 32234 ft 462 kts 110°
2026-04-26 15:02 43.31299 7.12356 32671 ft 461 kts 110°
2026-04-26 15:02 43.30200 7.16533 33118 ft 460 kts 110°
2026-04-26 15:03 43.29103 7.20707 33540 ft 460 kts 110°
2026-04-26 15:03 43.28022 7.24814 33869 ft 461 kts 110°
2026-04-26 15:03 43.26917 7.29000 34167 ft 463 kts 110°
2026-04-26 15:03 43.25810 7.33193 34474 ft 464 kts 110°
2026-04-26 15:04 43.24700 7.37391 34748 ft 465 kts 110°
2026-04-26 15:04 43.23577 7.41632 35005 ft 466 kts 110°
2026-04-26 15:04 43.22465 7.45825 35085 ft 468 kts 110°
2026-04-26 15:05 43.20222 7.54259 35097 ft 468 kts 110°
2026-04-26 15:05 43.17974 7.62686 35102 ft 468 kts 110°
2026-04-26 15:06 43.15813 7.70773 35105 ft 467 kts 110°
2026-04-26 15:06 43.13549 7.79229 35110 ft 467 kts 110°
2026-04-26 15:07 43.10157 7.91813 35111 ft 467 kts 110°
2026-04-26 15:07 43.07879 8.00224 35101 ft 467 kts 110°
2026-04-26 15:08 43.05611 8.08564 35097 ft 466 kts 110°
2026-04-26 15:08 43.03336 8.16906 35094 ft 466 kts 110°
2026-04-26 15:09 43.01060 8.25219 35099 ft 466 kts 110°
2026-04-26 15:09 42.98772 8.33556 35097 ft 466 kts 110°
2026-04-26 15:10 42.96844 8.40556 35099 ft 467 kts 110°
2026-04-26 15:10 42.94159 8.50277 35103 ft 466 kts 110°
2026-04-26 15:11 42.91853 8.58590 35103 ft 466 kts 110°
2026-04-26 15:11 42.89599 8.66430 35103 ft 466 kts 114°
2026-04-26 15:12 42.86734 8.74195 35106 ft 466 kts 118°
2026-04-26 15:12 42.83615 8.81996 35110 ft 466 kts 118°
2026-04-26 15:13 42.80491 8.89833 35109 ft 466 kts 118°
2026-04-26 15:13 42.77376 8.97657 35112 ft 467 kts 118°
2026-04-26 15:14 42.74255 9.05475 35113 ft 467 kts 118°
2026-04-26 15:14 42.71128 9.13267 35112 ft 466 kts 118°
2026-04-26 15:15 42.67993 9.21049 35114 ft 466 kts 118°
2026-04-26 15:15 42.64848 9.28855 35121 ft 466 kts 118°
2026-04-26 15:16 42.61711 9.36633 35124 ft 466 kts 118°
2026-04-26 15:16 42.58588 9.44426 35125 ft 466 kts 116°
2026-04-26 15:17 42.56342 9.51149 35125 ft 466 kts 111°
2026-04-26 15:17 42.53766 9.60871 35124 ft 466 kts 109°
2026-04-26 15:18 42.51615 9.69091 35121 ft 466 kts 110°
2026-04-26 15:18 42.49623 9.77448 35113 ft 466 kts 107°
2026-04-26 15:19 42.47498 9.85846 35113 ft 466 kts 112°
2026-04-26 15:19 42.44655 9.93722 35118 ft 465 kts 120°
2026-04-26 15:20 42.41142 10.01188 35112 ft 466 kts 124°
2026-04-26 15:20 42.37529 10.08583 35099 ft 466 kts 124°
2026-04-26 15:21 42.33952 10.15910 35095 ft 466 kts 124°
2026-04-26 15:21 42.30351 10.23283 35101 ft 465 kts 124°
2026-04-26 15:22 42.26743 10.30658 35175 ft 465 kts 124°
2026-04-26 15:22 42.23151 10.37985 35111 ft 464 kts 124°
2026-04-26 15:23 42.19577 10.45258 35103 ft 464 kts 124°
2026-04-26 15:23 42.15976 10.52568 35048 ft 465 kts 124°
2026-04-26 15:24 42.12396 10.59819 35112 ft 465 kts 124°
2026-04-26 15:24 42.08825 10.67036 35090 ft 464 kts 124°
2026-04-26 15:25 42.05814 10.73130 35092 ft 464 kts 124°
2026-04-26 15:25 42.01608 10.81609 35091 ft 464 kts 124°
2026-04-26 15:26 41.97989 10.88872 35087 ft 464 kts 124°
2026-04-26 15:26 41.94370 10.96114 35090 ft 464 kts 124°
2026-04-26 15:27 41.90737 11.03368 35096 ft 464 kts 124°
2026-04-26 15:27 41.87102 11.10571 35097 ft 464 kts 124°
2026-04-26 15:28 41.83442 11.17789 35100 ft 464 kts 124°
2026-04-26 15:28 41.79821 11.24944 35098 ft 464 kts 124°
2026-04-26 15:29 41.76173 11.32151 35102 ft 463 kts 124°
2026-04-26 15:30 41.68876 11.46529 35102 ft 463 kts 124°
2026-04-26 15:30 41.65212 11.53725 35105 ft 463 kts 124°
2026-04-26 15:31 41.59729 11.64458 35107 ft 462 kts 124°
2026-04-26 15:32 41.54845 11.74018 35108 ft 462 kts 124°
2026-04-26 15:32 41.50590 11.82313 35110 ft 462 kts 124°
2026-04-26 15:33 41.46932 11.89416 35113 ft 462 kts 124°
2026-04-26 15:33 41.43274 11.96498 35118 ft 461 kts 124°
2026-04-26 15:34 41.39584 12.03628 35120 ft 462 kts 124°
2026-04-26 15:34 41.35903 12.10722 35119 ft 462 kts 124°
2026-04-26 15:35 41.32248 12.17750 35117 ft 462 kts 124°
2026-04-26 15:35 41.28529 12.24884 35287 ft 465 kts 124°
2026-04-26 15:36 41.26694 12.28399 35686 ft 463 kts 124°
2026-04-26 15:36 41.24851 12.31926 36094 ft 461 kts 124°
2026-04-26 15:36 41.23019 12.35425 36436 ft 459 kts 124°
2026-04-26 15:36 41.21174 12.38946 36741 ft 459 kts 124°
2026-04-26 15:37 41.19346 12.42431 37024 ft 458 kts 124°
2026-04-26 15:37 41.17509 12.45929 37274 ft 458 kts 124°
2026-04-26 15:37 41.15667 12.49434 37507 ft 459 kts 124°
2026-04-26 15:37 41.13852 12.52883 37723 ft 459 kts 124°
2026-04-26 15:38 41.11993 12.56412 37950 ft 459 kts 124°
2026-04-26 15:38 41.10158 12.59891 38154 ft 459 kts 125°
2026-04-26 15:38 41.08307 12.63396 38347 ft 460 kts 125°
2026-04-26 15:38 41.06738 12.66367 38503 ft 460 kts 126°
2026-04-26 15:39 41.05090 12.69495 38657 ft 460 kts 125°
2026-04-26 15:39 41.03229 12.73023 38841 ft 460 kts 126°
2026-04-26 15:39 41.01388 12.76505 39008 ft 461 kts 126°
2026-04-26 15:39 41.00156 12.78829 39088 ft 461 kts 126°
2026-04-26 15:40 40.95833 12.86963 39088 ft 460 kts 126°
2026-04-26 15:40 40.92149 12.93955 39093 ft 459 kts 123°
2026-04-26 15:41 40.88918 13.01307 39091 ft 460 kts 118°
2026-04-26 15:41 40.85928 13.08790 39092 ft 461 kts 118°
2026-04-26 15:42 40.82926 13.16324 39098 ft 461 kts 117°
2026-04-26 15:42 40.79908 13.23894 39099 ft 461 kts 117°
2026-04-26 15:43 40.76914 13.31392 39105 ft 461 kts 117°
2026-04-26 15:44 40.72395 13.42671 39104 ft 460 kts 117°
2026-04-26 15:44 40.67876 13.53907 39098 ft 460 kts 117°
2026-04-26 15:45 40.63341 13.65138 39096 ft 461 kts 118°
2026-04-26 15:46 40.58789 13.76411 39095 ft 461 kts 118°
2026-04-26 15:46 40.56254 13.82660 39102 ft 461 kts 118°
2026-04-26 15:47 40.51210 13.95038 39104 ft 460 kts 118°
2026-04-26 15:48 40.48158 14.02502 39112 ft 460 kts 118°
2026-04-26 15:48 40.45106 14.09944 39098 ft 460 kts 118°
2026-04-26 15:49 40.42059 14.17359 39106 ft 461 kts 118°
2026-04-26 15:49 40.38990 14.24810 39115 ft 461 kts 118°
2026-04-26 15:50 40.35936 14.32204 39103 ft 461 kts 118°
2026-04-26 15:50 40.32854 14.39647 39111 ft 461 kts 118°
2026-04-26 15:51 40.29779 14.47058 39099 ft 461 kts 118°
2026-04-26 15:51 40.26697 14.54472 39112 ft 461 kts 118°
2026-04-26 15:52 40.23592 14.61924 39103 ft 462 kts 118°
2026-04-26 15:52 40.20502 14.69336 39110 ft 462 kts 118°
2026-04-26 15:53 40.17407 14.76752 39108 ft 462 kts 119°
2026-04-26 15:53 40.14326 14.84243 39108 ft 462 kts 116°
2026-04-26 15:54 40.11570 14.91855 39113 ft 462 kts 115°
2026-04-26 15:54 40.08810 14.99545 39107 ft 462 kts 115°
2026-04-26 15:55 40.06063 15.07179 39114 ft 462 kts 115°
2026-04-26 15:55 40.03318 15.14785 39110 ft 463 kts 115°
2026-04-26 15:56 40.00547 15.22438 39106 ft 463 kts 115°
2026-04-26 15:56 39.97770 15.30086 39105 ft 463 kts 115°
2026-04-26 15:57 39.95001 15.37692 39106 ft 463 kts 115°
2026-04-26 15:57 39.92218 15.45319 39104 ft 463 kts 115°
2026-04-26 15:58 39.89417 15.52975 39103 ft 464 kts 115°
2026-04-26 15:58 39.86621 15.60599 39109 ft 463 kts 113°
2026-04-26 15:59 39.84114 15.68341 39120 ft 463 kts 112°
2026-04-26 15:59 39.81635 15.76156 39123 ft 463 kts 112°
2026-04-26 16:00 39.79158 15.83932 39134 ft 464 kts 112°
2026-04-26 16:00 39.76675 15.91699 39142 ft 464 kts 112°
2026-04-26 16:01 39.74153 15.99564 39165 ft 465 kts 112°
2026-04-26 16:01 39.71646 16.07360 39163 ft 465 kts 112°
2026-04-26 16:02 39.69136 16.15140 39152 ft 465 kts 112°
2026-04-26 16:02 39.66629 16.22890 39136 ft 464 kts 112°
2026-04-26 16:03 39.64102 16.30678 39111 ft 464 kts 112°
2026-04-26 16:03 39.61583 16.38424 39112 ft 465 kts 112°
2026-04-26 16:04 39.59034 16.46238 39121 ft 465 kts 112°
2026-04-26 16:04 39.56485 16.54029 39130 ft 466 kts 112°
2026-04-26 16:05 39.53927 16.61829 39133 ft 466 kts 112°
2026-04-26 16:05 39.51372 16.69608 39118 ft 465 kts 113°
2026-04-26 16:06 39.48827 16.77355 39116 ft 465 kts 113°
2026-04-26 16:06 39.46250 16.85158 39102 ft 465 kts 113°
2026-04-26 16:07 39.43673 16.92929 39092 ft 465 kts 113°
2026-04-26 16:07 39.41000 17.00966 39078 ft 466 kts 113°
2026-04-26 16:08 39.38412 17.08725 39079 ft 466 kts 113°
2026-04-26 16:08 39.35826 17.16460 39078 ft 466 kts 113°
2026-04-26 16:09 39.33255 17.24127 39080 ft 466 kts 113°
2026-04-26 16:09 39.30659 17.31849 39076 ft 466 kts 113°
2026-04-26 16:10 39.28037 17.39629 39075 ft 466 kts 114°
2026-04-26 16:10 39.25423 17.47358 39077 ft 466 kts 114°
2026-04-26 16:11 39.22781 17.55150 39076 ft 467 kts 114°
2026-04-26 16:11 39.20152 17.62887 39075 ft 467 kts 114°
2026-04-26 16:12 39.17506 17.70666 39071 ft 467 kts 114°
2026-04-26 16:12 39.13558 17.82245 38989 ft 467 kts 114°
2026-04-26 16:13 39.10918 17.89947 39045 ft 468 kts 114°
2026-04-26 16:13 39.08265 17.97658 39069 ft 468 kts 114°
2026-04-26 16:14 39.05598 18.05386 39077 ft 469 kts 114°
2026-04-26 16:15 39.01584 18.16985 39077 ft 469 kts 114°
2026-04-26 16:15 38.98909 18.24692 39077 ft 469 kts 114°
2026-04-26 16:16 38.94895 18.36216 39082 ft 468 kts 114°
2026-04-26 16:16 38.92215 18.43881 39080 ft 468 kts 114°
2026-04-26 16:17 38.89523 18.51556 39079 ft 469 kts 115°
2026-04-26 16:17 38.86794 18.59245 39082 ft 468 kts 115°
2026-04-26 16:18 38.82721 18.70775 39079 ft 468 kts 115°
2026-04-26 16:19 38.78689 18.82209 39080 ft 467 kts 115°
2026-04-26 16:20 38.74620 18.93687 39080 ft 467 kts 115°
2026-04-26 16:20 38.70388 19.04997 39074 ft 467 kts 118°
2026-04-26 16:21 38.67406 19.12458 39064 ft 467 kts 118°
2026-04-26 16:21 38.64411 19.19946 39053 ft 468 kts 118°
2026-04-26 16:22 38.61440 19.27375 39053 ft 467 kts 117°
2026-04-26 16:22 38.58455 19.34831 39060 ft 467 kts 117°
2026-04-26 16:23 38.55465 19.42279 39054 ft 467 kts 117°
2026-04-26 16:23 38.52470 19.49725 39052 ft 467 kts 117°
2026-04-26 16:24 38.49467 19.57171 39062 ft 467 kts 117°
2026-04-26 16:24 38.46467 19.64592 39049 ft 467 kts 117°
2026-04-26 16:25 38.43549 19.71818 39061 ft 467 kts 118°
2026-04-26 16:25 38.40549 19.79225 39053 ft 467 kts 118°
2026-04-26 16:26 38.37542 19.86617 39057 ft 467 kts 118°
2026-04-26 16:26 38.34520 19.94022 39050 ft 467 kts 118°
2026-04-26 16:27 38.31492 20.01425 39044 ft 467 kts 118°
2026-04-26 16:27 38.28455 20.08833 39047 ft 467 kts 118°
2026-04-26 16:28 38.25409 20.16248 39044 ft 468 kts 118°
2026-04-26 16:28 38.22368 20.23632 39045 ft 467 kts 118°
2026-04-26 16:29 38.19336 20.30982 39046 ft 467 kts 118°
2026-04-26 16:29 38.16296 20.38333 39046 ft 468 kts 118°
2026-04-26 16:30 38.13224 20.45745 39012 ft 467 kts 118°
2026-04-26 16:30 38.10251 20.53130 39060 ft 468 kts 116°
2026-04-26 16:31 38.07413 20.60654 39055 ft 468 kts 115°
2026-04-26 16:31 38.04671 20.67948 39047 ft 468 kts 116°
2026-04-26 16:32 38.02321 20.74205 39041 ft 468 kts 116°
2026-04-26 16:32 37.99030 20.82917 39056 ft 467 kts 116°
2026-04-26 16:33 37.96186 20.90417 39039 ft 468 kts 116°
2026-04-26 16:33 37.93339 20.97905 39037 ft 468 kts 116°
2026-04-26 16:34 37.90489 21.05381 39034 ft 468 kts 116°
2026-04-26 16:34 37.87607 21.12869 39034 ft 469 kts 116°
2026-04-26 16:35 37.84719 21.20341 39035 ft 469 kts 116°
2026-04-26 16:35 37.81840 21.27811 39030 ft 468 kts 116°
2026-04-26 16:36 37.78966 21.35272 39043 ft 468 kts 116°
2026-04-26 16:36 37.76100 21.42704 39042 ft 468 kts 116°
2026-04-26 16:37 37.73206 21.50185 39043 ft 468 kts 116°
2026-04-26 16:37 37.70300 21.57681 39052 ft 469 kts 116°
2026-04-26 16:38 37.67397 21.65148 39066 ft 468 kts 116°
2026-04-26 16:38 37.64657 21.72207 39064 ft 469 kts 116°
2026-04-26 16:39 37.61731 21.79724 39077 ft 469 kts 116°
2026-04-26 16:39 37.58830 21.87144 39070 ft 469 kts 116°
2026-04-26 16:40 37.55888 21.94646 39061 ft 469 kts 116°
2026-04-26 16:40 37.52960 22.02093 39043 ft 469 kts 116°
2026-04-26 16:41 37.50017 22.09561 39044 ft 469 kts 116°
2026-04-26 16:41 37.47073 22.17023 39047 ft 469 kts 116°
2026-04-26 16:42 37.44134 22.24458 39060 ft 469 kts 116°
2026-04-26 16:42 37.41195 22.31906 39053 ft 470 kts 114°
2026-04-26 16:43 37.38684 22.39592 39056 ft 469 kts 109°
2026-04-26 16:43 37.36445 22.47326 39054 ft 469 kts 108°
2026-04-26 16:44 37.34199 22.55076 39046 ft 469 kts 108°
2026-04-26 16:44 37.31932 22.62857 39050 ft 469 kts 108°
2026-04-26 16:45 37.29678 22.70576 39052 ft 469 kts 109°
2026-04-26 16:45 37.27404 22.78349 39063 ft 470 kts 109°
2026-04-26 16:46 37.25141 22.86048 39043 ft 470 kts 109°
2026-04-26 16:46 37.22856 22.93796 39035 ft 469 kts 109°
2026-04-26 16:47 37.20565 23.01534 39007 ft 469 kts 109°
2026-04-26 16:47 37.18265 23.09286 39004 ft 469 kts 109°
2026-04-26 16:48 37.15976 23.16988 39002 ft 469 kts 108°
2026-04-26 16:48 37.13676 23.24701 38999 ft 470 kts 108°
2026-04-26 16:49 37.11387 23.32337 38458 ft 462 kts 108°
2026-04-26 16:49 37.10238 23.36147 37763 ft 461 kts 108°
2026-04-26 16:49 37.09098 23.39924 37133 ft 458 kts 108°
2026-04-26 16:50 37.07974 23.43649 36483 ft 456 kts 108°
2026-04-26 16:50 37.06845 23.47390 35780 ft 455 kts 108°
2026-04-26 16:50 37.05729 23.51084 35019 ft 456 kts 108°
2026-04-26 16:50 37.04591 23.54840 34210 ft 456 kts 108°
2026-04-26 16:51 37.03455 23.58594 33480 ft 457 kts 107°
2026-04-26 16:51 37.02325 23.62327 32726 ft 458 kts 107°
2026-04-26 16:51 37.01187 23.66078 31923 ft 460 kts 108°
2026-04-26 16:51 37.00079 23.69735 31103 ft 461 kts 108°
2026-04-26 16:52 36.99363 23.72101 30565 ft 462 kts 108°
2026-04-26 16:52 36.98621 23.74543 30007 ft 463 kts 107°
2026-04-26 16:52 36.97085 23.79588 29159 ft 456 kts 107°
2026-04-26 16:52 36.95934 23.83357 28555 ft 451 kts 107°
2026-04-26 16:53 36.94814 23.87025 27932 ft 446 kts 108°
2026-04-26 16:53 36.93693 23.90692 27287 ft 441 kts 107°
2026-04-26 16:53 36.92594 23.94274 26651 ft 437 kts 108°
2026-04-26 16:53 36.91505 23.97821 26026 ft 432 kts 108°
2026-04-26 16:54 36.90419 24.01355 25394 ft 427 kts 108°
2026-04-26 16:54 36.89575 24.04086 24903 ft 424 kts 108°
2026-04-26 16:54 36.88546 24.07383 24300 ft 420 kts 108°
2026-04-26 16:54 36.87482 24.10791 23690 ft 415 kts 108°
2026-04-26 16:55 36.86433 24.14164 23087 ft 411 kts 108°
2026-04-26 16:55 36.85405 24.17476 22491 ft 407 kts 108°
2026-04-26 16:55 36.84374 24.20810 21874 ft 403 kts 108°
2026-04-26 16:55 36.83360 24.24088 21276 ft 400 kts 108°
2026-04-26 16:56 36.81369 24.30518 20124 ft 393 kts 107°
2026-04-26 16:56 36.80366 24.33752 19546 ft 390 kts 108°
2026-04-26 16:56 36.79388 24.36906 18990 ft 386 kts 107°
2026-04-26 16:57 36.78428 24.40002 18449 ft 383 kts 107°
2026-04-26 16:57 36.77448 24.43153 17905 ft 380 kts 107°
2026-04-26 16:57 36.75551 24.49265 16859 ft 373 kts 106°
2026-04-26 16:58 36.74797 24.52373 16341 ft 367 kts 99°
2026-04-26 16:58 36.74443 24.54524 15987 ft 363 kts 95°
2026-04-26 16:58 36.73695 24.61791 14789 ft 356 kts 93°
2026-04-26 16:59 36.73402 24.64864 14277 ft 354 kts 93°
2026-04-26 16:59 36.72808 24.70933 13256 ft 349 kts 94°
2026-04-26 17:00 36.72212 24.76930 12214 ft 343 kts 94°
2026-04-26 17:00 36.71627 24.82739 11596 ft 324 kts 95°
2026-04-26 17:00 36.71345 24.85524 11390 ft 313 kts 95°
2026-04-26 17:01 36.71077 24.88157 11195 ft 302 kts 94°
2026-04-26 17:01 36.70814 24.90740 10939 ft 295 kts 95°
2026-04-26 17:01 36.70554 24.93302 10540 ft 293 kts 95°
2026-04-26 17:01 36.70295 24.95845 10132 ft 291 kts 95°
2026-04-26 17:02 36.70039 24.98348 9689 ft 288 kts 95°
2026-04-26 17:02 36.69781 25.00835 9205 ft 287 kts 95°
2026-04-26 17:02 36.69521 25.03331 8710 ft 286 kts 95°
2026-04-26 17:02 36.69266 25.05780 8220 ft 285 kts 95°
2026-04-26 17:03 36.69011 25.08228 7654 ft 283 kts 95°
2026-04-26 17:03 36.68755 25.10680 7068 ft 282 kts 95°
2026-04-26 17:03 36.68499 25.13125 6472 ft 281 kts 95°
2026-04-26 17:03 36.68244 25.15567 5877 ft 279 kts 95°
2026-04-26 17:04 36.67950 25.17949 5299 ft 277 kts 98°
2026-04-26 17:04 36.67497 25.20303 4706 ft 276 kts 102°
2026-04-26 17:04 36.66998 25.22632 4149 ft 274 kts 102°
2026-04-26 17:04 36.66498 25.24929 3581 ft 273 kts 102°
2026-04-26 17:05 36.66006 25.27202 3145 ft 270 kts 102°
2026-04-26 17:05 36.65509 25.29500 3008 ft 270 kts 102°
2026-04-26 17:05 36.65024 25.31741 2993 ft 263 kts 102°
2026-04-26 17:05 36.64555 25.33901 2987 ft 248 kts 101°
2026-04-26 17:06 36.64015 25.35949 2980 ft 243 kts 116°
2026-04-26 17:06 36.62794 25.37376 2980 ft 246 kts 152°
2026-04-26 17:06 36.61165 25.38168 2996 ft 248 kts 161°
2026-04-26 17:06 36.59488 25.38825 2991 ft 249 kts 162°
2026-04-26 17:07 36.57785 25.39523 2996 ft 249 kts 160°
2026-04-26 17:07 36.56133 25.40251 2994 ft 249 kts 159°
2026-04-26 17:07 36.54518 25.40992 2910 ft 237 kts 159°
2026-04-26 17:07 36.53041 25.41676 2756 ft 213 kts 159°
2026-04-26 17:08 36.51673 25.42310 2508 ft 205 kts 159°
2026-04-26 17:08 36.50335 25.42933 2248 ft 196 kts 159°
2026-04-26 17:08 36.49077 25.43520 1996 ft 186 kts 159°
2026-04-26 17:08 36.47883 25.44076 1770 ft 176 kts 159°
2026-04-26 17:09 36.46751 25.44606 1539 ft 167 kts 159°
2026-04-26 17:09 36.46027 25.44947 1387 ft 161 kts 159°
2026-04-26 17:09 36.44656 25.45587 1100 ft 149 kts 160°
2026-04-26 17:09 36.43711 25.46071 895 ft 143 kts 155°
2026-04-26 17:10 36.42791 25.46554 686 ft 142 kts 161°
2026-04-26 17:10 36.41879 25.46989 434 ft 138 kts 160°
2026-04-26 17:10 36.40970 25.47418 173 ft 137 kts 161°
2026-04-26 17:10 36.40113 25.47823 91 ft 120 kts 158°
2026-04-26 17:11 36.39491 25.48121 67 ft 69 kts 159°
2026-04-26 17:11 36.39180 25.48271 56 ft 37 kts 159°
2026-04-26 17:11 36.39035 25.48303 53 ft 15 kts 232°
2026-04-26 17:11 36.39017 25.48193 59 ft 10 kts 292°
2026-04-26 17:12 36.39145 25.48118 67 ft 11 kts 338°
2026-04-26 17:12 36.39224 25.48081 70 ft 13 kts 339°
2026-04-26 17:13 36.39496 25.47945 82 ft 26 kts 341°
2026-04-26 17:13 36.39659 25.47872 89 ft 22 kts 336°
2026-04-26 17:13 36.39918 25.47743 100 ft 17 kts 342°
2026-04-26 17:14 36.40033 25.47694 102 ft 16 kts 339°
2026-04-26 17:14 36.40242 25.47595 108 ft 14 kts 338°
2026-04-26 17:14 36.40265 25.47522 114 ft 7 kts 255°
2026-04-26 17:15 36.40302 25.47400 125 ft 9 kts 338°
2026-04-26 17:15 36.40311 25.47396 125 ft 0 kts 338°